Simultaneous Nadir Overpasses (SNOs) Predictions

Prediction of SNOs between LANDSAT-8 and NOAA-19 Satellite Orbit:

Table of predicted SNOs for the next 14.0 days since TLE Epoch: 9/8/2017
Index Date (LANDSAT-8) Time (LANDSAT-8) Lat,Lon (LANDSAT-8) SZA (LANDSAT-8 ) Date (NOAA-19) Time (NOAA-19) Lat,Lon (NOAA-19) SZA (NOAA-19 ) Distance(km) Time Diff (sec)
1 09/08/2017 18:47:11 -76.56, 88.25 108.68 09/08/2017 18:46:32 -76.55, 88.37 108.68 3.07 39
2 09/08/2017 19:36:37 76.54,-104.15 71.32 09/08/2017 19:37:29 76.52,-104.23 71.31 3.11 52
3 09/11/2017 00:20:54 76.56,-175.15 72.18 09/11/2017 00:20:15 76.57,-175.04 72.19 3.07 39
4 09/11/2017 01:10:22 -76.53, -7.62 107.84 09/11/2017 01:11:18 -76.52, -7.60 107.85 1.80 56
5 09/13/2017 05:54:38 -76.60, -78.47 106.92 09/13/2017 05:54:05 -76.59, -78.52 106.94 1.56 33
6 09/13/2017 06:44:05 76.53, 88.95 73.02 09/13/2017 06:45:01 76.55, 88.90 73.05 2.83 56
7 09/15/2017 11:28:21 76.59, 18.07 73.93 09/15/2017 11:27:47 76.60, 18.06 73.95 1.94 34
8 09/15/2017 12:17:48 -76.56,-174.38 106.08 09/15/2017 12:18:50 -76.56,-174.54 106.08 4.20 62
9 09/17/2017 17:02:04 -76.61, 114.74 105.17 09/17/2017 17:01:36 -76.60, 114.67 105.19 2.07 28
10 09/17/2017 17:51:31 76.54, -77.86 74.77 09/17/2017 17:52:31 76.55, -77.85 74.79 0.82 60
11 09/19/2017 22:35:47 76.59,-148.78 75.68 09/19/2017 22:35:17 76.61,-148.70 75.70 2.79 30
12 09/19/2017 23:25:15 -76.57, 18.79 104.33 09/19/2017 23:26:21 -76.54, 18.79 104.34 2.98 66
13 09/22/2017 04:09:31 -76.61, -52.13 103.42 09/22/2017 04:09:07 -76.59, -52.04 103.44 3.09 24




NCC Satellite Simultaneous Nadir Overpasses (SNOs) Prediction Service
